GFSSE_925_rhum_000.txt.gz
RH
81 82 74 68 71 82 78 76 82 82 81 77 72 75 72 69 69 68 68 66 64 63 67 73 71 68 75 82 67 64 60 66 73 75 85 85 76 66 63 76 70 64 78
91 84 80 70 57 69 82 80 83 79 82 76 78 75 72 70 69 69 70 69 69 70 72 72 70 75 89 86 83 68 68 68 77 79 73 82 87 92 63 58 65 69 74
93 85 81 62 49 42 60 80 89 74 74 82 78 75 75 72 74 82 70 71 72 74 72 70 72 78 81 77 74 78 78 74 73 75 69 62 65 92 69 55 68 60 78
92 77 76 66 48 35 25 44 69 76 73 38 75 83 79 84 70 60 91 74 74 75 76 70 70 78 89 89 89 82 80 76 75 75 70 58 56 81 76 71 74 64 64
84 82 88 70 56 46 32 24 41 57 68 72 80 84 86 81 82 75 91 80 79 77 79 84 84 91 92 91 94 91 84 84 77 71 56 60 54 74 72 79 88 88 82
83 82 94 84 74 60 45 32 29 47 54 68 71 75 82 77 80 80 79 79 82 82 82 86 94 93 94 91 93 93 83 78 71 65 58 65 64 72 72 79 96 92 93
84 84 88 88 86 78 67 51 46 49 53 59 69 71 71 86 85 88 87 87 84 85 84 89 88 87 88 96 97 91 83 72 75 54 59 63 66 77 78 83 94 86 82
74 81 84 93 86 81 80 78 67 63 68 70 66 60 67 72 78 80 76 74 78 81 82 82 78 80 82 89 94 90 84 67 70 58 59 59 64 74 90 70 83 88 82
76 78 80 81 83 79 78 82 83 76 76 78 76 72 60 61 65 62 60 72 76 87 92 92 85 85 86 83 91 92 91 89 71 59 61 59 66 74 89 80 73 77 80
71 71 77 77 78 84 82 73 72 78 80 79 81 86 82 77 78 87 80 74 77 80 84 85 86 88 89 80 78 89 93 93 81 65 62 61 68 69 85 86 78 77 80
57 64 82 80 86 83 72 66 72 72 72 74 82 84 85 92 92 100 98 98 94 82 77 81 89 89 81 74 76 84 88 89 82 70 64 64 71 73 84 82 84 76 81
46 47 62 84 82 77 66 68 85 87 86 86 86 92 90 66 67 74 73 78 86 89 88 90 90 93 82 77 81 55 67 62 63 76 66 68 78 78 90 90 75 82 80
42 45 53 67 76 76 75 72 76 98 95 87 90 88 80 70 73 71 70 59 78 75 78 83 99 95 95 90 79 66 70 81 83 83 73 66 79 83 92 89 81 82 81
39 40 44 62 73 75 66 67 68 67 69 72 86 93 97 99 100 86 84 97 94 86 66 70 76 74 88 95 97 85 81 84 82 77 78 67 74 79 92 91 87 81 77
34 38 39 47 57 62 63 61 61 59 58 61 63 74 74 84 97 97 61 52 65 64 57 64 71 97 95 87 84 91 99 98 88 79 65 71 61 64 85 94 91 97 84
29 32 34 37 46 48 55 56 52 48 44 44 50 61 72 72 92 96 92 89 95 98 98 87 87 84 93 92 96 99 97 94 100 97 98 93 73 65 60 86 95 96 96
25 28 28 30 36 37 42 39 34 34 34 39 50 65 68 67 81 90 83 81 85 98 98 99 100 98 96 99 93 89 89 96 99 100 99 96 79 58 57 59 80 90 96
22 23 25 22 30 32 33 29 27 30 32 38 49 53 58 59 61 64 68 75 82 87 85 86 92 92 98 100 100 92 91 85 95 98 100 90 88 69 53 41 60 77 95
22 21 25 27 27 28 29 31 36 39 32 35 40 41 47 44 46 42 48 56 55 51 61 65 70 81 80 93 96 93 99 98 93 94 96 86 90 87 75 46 43 61 86
24 22 25 26 30 30 29 31 33 34 35 32 32 35 38 39 39 34 37 47 42 37 37 39 40 43 54 76 72 85 99 94 95 96 97 99 98 96 88 81 43 52 67
26 24 24 26 29 28 28 27 26 27 30 34 31 34 38 34 34 35 31 33 35 38 42 40 34 33 35 49 44 62 73 88 94 94 89 86 99 86 96 84 70 45 57
26 25 23 23 27 26 24 24 25 26 26 26 31 38 38 38 36 33 32 31 35 31 33 37 38 34 29 36 43 41 64 66 84 91 89 94 90 97 91 94 84 52 47
30 28 26 24 24 25 25 25 26 28 29 28 28 29 35 42 42 43 40 38 36 38 35 36 36 37 32 29 38 45 43 62 74 71 81 96 94 100 99 88 87 62 50
31 31 29 24 23 24 28 24 27 23 21 21 27 28 33 40 44 44 45 46 49 44 40 36 32 36 36 34 28 29 50 41 42 44 57 70 92 100 98 100 97 81 65
30 33 33 27 26 24 29 32 30 30 26 28 32 37 37 39 43 44 45 50 53 52 46 48 48 40 38 38 35 31 29 34 36 48 44 40 72 79 99 99 100 91 85
30 35 36 31 27 28 32 35 35 32 31 31 32 34 32 33 33 38 42 46 49 50 50 50 49 50 48 44 40 37 32 32 29 29 43 44 40 48 75 90 100 96 91

GFSSE_925_rhum_003.txt.gz
RH
64 75 63 56 56 64 74 79 84 79 79 79 75 71 68 64 63 63 64 59 59 59 63 69 66 68 62 54 55 51 51 55 62 71 86 97 96 79 70 58 66 74 75
73 75 69 64 52 68 70 62 74 88 87 76 72 74 73 70 68 72 74 75 71 67 66 72 74 70 91 77 60 60 61 65 68 72 75 71 88 80 68 53 70 72 72
77 68 70 58 51 52 65 63 67 72 78 81 82 78 76 75 69 78 74 64 75 86 75 74 74 68 74 73 68 63 64 75 79 65 61 66 70 73 62 54 74 68 69
83 68 64 61 51 41 50 56 62 72 81 60 78 86 78 76 57 63 63 44 46 74 78 78 77 76 78 80 75 71 71 70 65 67 70 58 61 72 72 53 69 68 68
71 69 83 67 62 50 43 53 69 77 71 79 91 89 83 84 74 84 58 48 47 77 89 84 80 81 87 91 91 85 79 76 71 68 57 52 51 71 70 70 73 60 68
83 83 80 75 72 60 52 62 68 65 71 77 76 79 79 84 89 88 70 59 70 94 96 88 86 82 88 87 89 93 91 87 80 71 49 54 59 78 68 66 91 84 80
78 90 95 83 84 79 66 49 53 66 72 66 69 75 67 70 87 90 93 88 85 74 88 87 84 79 95 90 86 83 93 83 86 55 46 51 61 75 69 59 87 97 96
60 73 81 81 78 78 76 73 66 64 72 78 74 69 67 59 67 66 72 80 76 84 85 83 82 85 80 74 76 79 91 82 79 59 46 48 59 70 72 66 90 92 94
56 60 63 66 75 81 77 69 71 75 72 74 79 80 76 66 56 78 80 78 90 97 99 95 89 86 86 82 81 83 80 77 75 71 49 50 63 69 70 82 82 88 87
57 54 57 59 60 67 67 69 60 63 71 76 78 80 82 79 78 61 81 84 74 84 86 85 95 88 86 89 74 79 82 79 82 65 63 57 62 69 70 88 80 75 74
48 52 67 63 68 65 55 52 69 70 69 72 80 76 80 83 98 86 62 73 80 80 79 92 98 99 87 84 77 72 76 71 68 77 75 76 66 65 63 69 91 81 72
37 39 47 71 74 69 54 53 67 75 71 71 73 83 74 84 86 89 95 83 75 68 64 62 71 71 99 88 89 74 64 56 69 67 63 70 70 68 66 60 92 88 77
34 36 46 62 74 73 63 60 72 82 78 74 78 74 90 86 89 88 99 94 78 65 81 82 76 73 72 74 92 90 64 68 65 66 65 65 63 68 69 67 84 91 83
30 35 43 63 69 66 55 55 61 62 63 61 74 76 78 76 91 91 96 92 93 90 88 75 83 79 78 77 66 90 90 91 93 97 85 81 67 59 63 86 90 90 92
28 33 38 50 59 63 57 57 56 52 51 53 53 63 60 60 74 76 80 80 84 87 87 94 67 59 72 76 88 78 81 96 95 98 95 88 81 69 56 44 88 92 96
25 30 36 40 48 49 53 55 50 45 44 42 49 59 67 65 72 73 73 78 78 95 99 97 99 99 95 84 86 83 84 89 95 90 89 95 78 63 59 61 46 88 92
24 27 30 32 38 40 42 37 31 32 35 41 52 60 60 58 65 59 56 57 64 83 85 84 92 96 99 97 98 84 82 84 89 94 95 91 98 87 84 78 52 67 90
22 24 25 18 27 29 30 29 26 30 33 40 46 50 53 53 53 52 50 52 57 56 62 71 79 83 89 99 94 97 98 86 78 81 95 88 91 85 84 79 51 39 64
22 22 23 23 25 28 29 25 31 36 29 33 38 40 45 42 42 37 40 44 45 39 40 40 39 49 57 63 81 77 81 93 84 81 85 91 92 91 85 70 56 36 31
23 22 23 24 24 26 26 29 29 30 32 33 32 32 39 36 35 33 33 41 40 35 36 42 40 36 37 40 52 46 51 86 94 92 91 83 86 92 98 89 66 48 40
23 26 24 25 25 26 24 24 25 28 29 30 29 32 35 30 34 35 30 32 35 32 38 42 40 38 34 34 40 39 32 37 57 84 88 88 85 90 94 98 93 81 55
25 25 23 23 24 27 23 24 23 24 24 26 28 33 39 36 35 34 32 33 32 34 37 37 40 39 36 32 33 36 40 36 38 64 74 77 80 82 90 96 99 95 79
28 27 26 22 23 25 24 21 24 27 28 26 26 30 36 41 39 37 37 36 38 40 37 37 38 38 36 36 35 32 37 42 45 32 42 56 84 92 89 89 93 98 91
27 30 29 26 24 24 25 24 22 22 22 21 21 22 24 29 37 39 38 36 36 39 40 40 37 38 41 40 38 36 36 33 40 45 33 33 44 58 81 99 88 92 99
24 30 32 30 27 24 23 28 26 27 28 25 26 28 31 34 36 39 38 38 40 39 38 40 42 45 44 45 43 40 40 38 37 40 42 35 34 42 64 60 94 98 91
24 30 33 33 31 27 26 26 32 32 30 29 29 31 34 31 32 32 34 37 41 41 40 41 43 45 45 46 47 45 44 43 39 39 40 39 34 33 38 41 62 80 99

GFSSE_925_rhum_006.txt.gz
RH
67 70 54 57 58 64 72 78 77 70 75 81 77 71 60 61 61 66 65 60 58 60 61 63 62 65 58 46 39 39 37 36 42 43 42 40 47 55 59 72 79 89 72
66 68 55 54 56 59 63 72 85 84 85 83 81 80 74 67 72 67 72 78 74 72 76 79 75 71 62 54 53 52 49 48 50 56 57 57 50 53 52 76 78 79 74
66 68 57 48 41 49 68 83 89 93 86 84 83 81 82 80 76 70 61 44 69 58 53 69 86 77 67 64 56 55 55 55 54 53 58 81 70 52 42 60 75 78 74
69 71 58 54 48 42 51 76 88 88 84 74 68 81 82 79 74 78 65 41 50 63 52 43 73 93 76 74 69 63 64 64 62 54 47 59 76 65 41 38 75 77 73
69 76 60 59 56 48 39 45 69 79 86 86 84 83 78 80 80 73 73 69 70 72 76 92 99 99 83 80 82 77 74 77 68 62 63 58 61 69 54 40 53 73 70
72 76 64 64 62 55 48 58 60 54 63 65 64 69 85 85 84 85 62 60 63 77 83 98 92 65 98 84 83 85 83 79 76 70 65 58 51 75 66 47 63 67 66
72 81 65 59 64 66 59 48 49 54 53 50 46 56 68 74 91 90 90 89 86 83 83 59 60 62 79 70 87 85 95 86 84 75 71 52 54 68 74 57 76 86 61
67 75 78 66 61 64 64 64 61 57 57 60 59 51 51 61 61 68 75 73 69 77 81 72 68 74 80 73 70 82 90 89 79 75 62 48 54 57 70 66 62 87 90
50 55 59 73 69 76 73 62 62 67 66 66 69 66 63 63 72 62 56 63 71 78 90 94 93 88 85 77 69 71 81 83 76 71 62 65 56 64 68 67 64 88 95
50 52 53 53 67 73 72 58 60 60 64 68 72 75 74 75 80 87 84 78 80 85 82 86 94 98 98 92 84 61 66 68 65 62 70 68 67 65 70 80 75 92 86
43 46 59 64 66 65 59 52 70 73 72 75 74 71 74 88 86 97 94 90 78 74 71 78 80 86 95 98 92 78 63 57 62 69 67 76 71 65 62 66 83 83 83
34 35 42 63 72 72 58 50 70 71 76 80 79 81 76 83 83 82 89 89 80 76 66 65 66 67 66 72 78 99 91 66 60 66 72 74 71 69 64 62 68 88 83
32 36 44 59 72 72 65 61 66 73 70 72 77 75 77 80 86 85 88 95 98 87 65 57 70 68 68 68 58 62 83 83 72 62 60 65 65 66 66 61 66 80 88
26 32 40 61 68 63 58 56 60 61 64 64 74 72 66 70 70 85 88 87 80 88 97 97 70 77 74 70 66 79 70 68 64 78 78 81 86 72 82 80 70 76 87
25 30 36 50 62 66 57 58 56 52 52 54 56 61 61 61 73 74 76 77 80 85 86 81 78 66 66 70 60 68 69 80 83 67 80 82 87 85 82 85 88 93 82
23 27 36 41 50 52 54 58 56 50 47 45 51 61 67 67 72 74 71 72 72 83 88 87 98 94 89 95 96 87 83 78 74 79 94 91 88 83 82 79 84 92 94
22 25 32 36 43 48 52 52 45 40 38 43 54 62 64 62 62 57 57 56 62 72 74 79 84 80 84 88 92 97 100 95 92 90 81 90 90 86 92 78 69 71 88
21 24 28 25 31 37 38 35 32 32 35 41 50 56 56 55 56 53 50 53 48 49 51 51 45 49 63 69 78 84 81 80 89 88 86 85 86 89 91 89 83 69 76
22 22 24 23 21 29 30 31 28 31 32 36 44 47 50 46 43 39 41 44 41 38 38 41 42 39 38 38 40 55 51 47 48 66 84 82 89 89 84 85 84 77 77
22 23 23 24 25 27 27 27 31 34 33 32 36 37 42 38 38 35 34 38 41 37 38 42 44 41 41 37 36 36 42 42 51 61 61 84 86 86 85 80 82 81 69
22 25 25 24 26 26 28 28 29 30 30 32 31 31 35 36 37 37 35 32 34 35 37 37 39 42 41 41 40 38 36 37 39 36 49 80 89 84 90 87 84 92 78
24 25 26 25 25 26 28 27 25 27 28 30 30 31 34 36 34 35 36 34 35 36 38 39 43 41 43 39 46 49 58 42 35 38 38 41 60 64 84 90 86 89 91
26 28 28 27 25 25 27 26 25 25 26 28 28 29 35 36 39 39 38 38 37 38 41 42 40 40 43 45 42 48 61 61 51 40 36 34 35 37 50 48 86 95 90
24 27 30 30 27 25 25 27 27 26 29 28 26 27 27 33 39 39 40 39 39 38 39 41 44 46 47 51 49 48 46 46 59 58 43 38 34 33 34 42 38 64 98
21 26 28 31 32 29 27 27 27 27 28 27 29 28 28 31 33 35 39 38 39 42 43 44 43 44 47 52 54 54 51 51 50 58 60 48 40 36 33 31 39 53 43
22 24 28 32 34 33 31 29 28 29 30 34 32 34 33 34 34 33 35 38 40 41 40 39 39 39 41 44 48 52 53 54 51 51 54 50 48 41 36 33 32 34 36

GFSSE_925_rhum_009.txt.gz
RH
76 53 53 63 75 83 82 90 87 88 82 78 74 67 62 54 53 53 46 39 38 41 40 52 61 67 67 56 53 52 44 36 43 54 63 61 60 60 68 82 90 83 69
68 50 48 46 61 76 87 89 93 88 86 84 82 76 70 69 69 63 57 46 47 41 48 56 61 68 75 69 57 54 52 46 39 32 40 55 50 48 41 72 81 86 75
70 57 45 38 43 61 76 85 89 82 80 84 85 83 80 78 76 70 70 68 47 52 53 65 69 73 74 83 67 58 57 51 48 42 38 45 64 49 38 62 74 77 75
71 59 51 40 30 33 55 72 79 80 77 72 80 84 84 82 76 70 71 63 50 46 50 65 57 70 54 75 86 68 62 58 58 56 51 56 80 56 43 50 72 81 73
72 57 53 46 39 39 53 66 66 65 66 76 80 79 80 83 81 71 65 60 60 67 73 73 68 64 57 72 87 91 74 67 64 60 58 68 73 80 55 42 62 78 75
75 60 60 55 47 40 38 41 45 44 42 40 49 68 80 78 78 78 64 74 67 73 79 77 81 64 63 55 53 60 81 81 68 59 62 68 71 66 62 44 47 76 79
76 64 58 56 56 55 50 44 40 37 38 47 52 52 56 64 77 76 80 63 78 79 78 76 48 65 61 66 59 74 92 91 82 70 63 76 72 57 65 68 52 60 71
68 70 65 62 66 63 54 53 54 53 51 56 66 64 62 71 83 90 90 84 80 74 66 59 59 67 62 60 66 83 84 85 82 79 66 73 66 57 58 67 58 75 66
64 69 69 70 73 72 67 52 53 59 61 59 66 74 72 74 75 72 81 83 84 81 75 84 90 91 85 83 83 78 86 86 86 73 78 74 63 62 59 63 62 75 72
55 60 74 79 72 69 67 56 66 59 64 66 68 77 72 74 84 90 87 85 87 89 86 82 84 90 91 89 89 84 84 82 80 76 69 72 69 69 71 72 64 63 83
44 46 53 68 77 70 68 58 70 72 74 77 76 69 76 89 84 86 88 87 79 77 84 81 82 84 86 85 84 81 80 78 79 77 70 72 73 70 68 68 66 65 89
38 39 42 41 58 60 71 60 70 72 75 76 78 76 81 85 78 80 84 88 86 80 78 66 70 71 81 79 75 78 78 72 63 70 73 76 72 73 69 66 65 64 81
34 35 38 53 63 70 65 67 69 69 74 71 78 81 83 82 77 85 83 89 93 92 79 72 68 68 70 70 67 62 64 70 64 67 70 76 83 79 76 73 70 64 69
35 35 38 45 60 63 60 68 65 68 66 73 74 74 60 66 69 85 85 89 81 70 66 74 72 68 56 54 68 77 76 70 60 65 63 65 76 84 91 85 90 76 69
28 34 37 41 61 59 58 58 59 61 60 61 60 67 67 70 70 74 77 76 80 88 87 93 95 94 90 90 87 84 75 76 62 66 67 63 65 69 76 87 88 91 93
23 33 36 39 49 58 58 55 56 52 52 51 53 54 63 68 74 78 78 75 72 72 73 74 77 87 88 91 98 96 92 97 94 94 85 74 77 76 82 80 76 91 92
22 26 31 37 46 50 56 58 53 47 40 42 46 52 63 67 67 63 64 60 65 60 67 59 51 44 56 68 71 78 83 85 87 94 99 96 80 82 86 88 83 76 85
21 24 30 30 37 42 49 44 39 40 36 39 45 47 45 58 56 54 53 54 52 46 46 41 39 38 38 37 36 38 63 46 42 40 46 76 93 87 84 85 86 84 77
21 24 26 28 25 32 35 37 32 34 33 38 45 48 46 38 44 44 45 46 37 39 38 39 40 41 40 41 39 39 35 34 34 35 42 62 60 80 88 78 86 85 83
22 23 23 25 24 24 29 30 31 32 32 32 44 46 42 38 37 37 40 39 37 37 39 40 38 42 41 40 41 38 41 38 36 36 40 44 50 66 77 88 89 89 83
23 23 24 24 25 26 27 28 28 31 32 32 33 34 42 38 36 35 33 40 38 37 39 42 41 41 40 42 40 42 39 36 41 36 42 37 37 34 66 84 93 93 92
23 23 24 25 25 25 26 27 27 27 28 28 30 32 38 36 38 36 35 35 34 35 35 37 42 45 44 40 50 50 69 50 42 44 40 40 38 36 34 32 35 79 98
23 24 25 26 26 26 25 26 27 27 27 30 30 33 34 33 33 35 36 38 37 38 38 41 42 40 45 50 45 53 70 68 61 50 50 46 43 41 37 35 32 42 45
23 25 26 27 29 29 27 27 26 27 29 27 24 25 28 34 33 37 38 40 41 41 41 45 52 48 47 53 50 48 51 54 69 67 52 51 48 45 42 39 36 34 45
22 22 26 29 30 30 31 31 29 27 26 28 28 26 30 30 35 42 43 42 41 44 45 45 42 41 40 42 46 49 51 51 55 63 65 52 49 45 42 40 38 36 34
25 25 24 25 26 26 30 32 33 33 30 28 30 32 32 37 39 39 40 39 40 41 38 36 32 28 27 27 30 39 48 55 54 56 60 54 51 47 41 35 32 32 32

GFSSE_925_rhum_012.txt.gz
RH
74 70 64 65 65 77 84 83 81 83 74 71 66 60 64 64 60 62 52 48 43 43 46 40 44 48 57 62 59 53 51 52 53 54 58 52 52 60 68 77 85 85 75
58 52 52 59 70 76 81 85 83 84 78 78 72 64 60 63 66 56 54 54 62 54 56 57 58 53 50 58 61 68 62 61 60 58 60 61 60 64 72 90 94 76 69
57 46 41 46 57 68 76 85 80 81 81 76 78 74 68 65 64 63 64 64 57 53 60 58 76 73 73 68 55 55 66 68 60 61 70 69 64 61 60 84 91 83 74
64 50 40 36 46 61 65 72 77 73 65 64 76 80 78 74 70 68 72 68 62 57 70 56 56 57 68 68 64 64 65 67 65 56 54 64 82 64 52 61 73 77 75
63 56 50 38 34 37 45 54 58 65 73 78 80 81 85 84 81 79 77 72 70 68 70 72 68 66 58 59 48 37 41 62 68 64 56 56 71 81 74 43 69 80 76
65 59 49 39 34 31 31 35 42 44 43 50 76 82 84 84 84 80 76 71 78 67 79 81 82 76 64 58 44 44 44 61 82 77 65 63 73 71 80 51 44 69 77
58 53 50 47 46 45 43 42 44 47 47 48 48 51 66 83 84 84 85 72 81 83 83 81 78 78 72 64 57 52 58 64 87 92 77 79 76 75 74 58 47 58 77
58 58 59 61 60 57 52 50 51 53 55 57 58 58 55 54 62 67 77 82 82 77 69 61 59 70 76 65 63 61 73 76 86 89 77 90 80 71 78 68 61 50 64
67 69 67 72 70 65 55 47 48 53 59 63 65 70 70 72 71 66 63 64 74 68 67 66 72 74 87 84 83 77 79 83 89 92 87 87 78 67 70 75 67 61 68
76 77 76 78 76 69 55 63 56 54 60 67 68 67 69 76 78 77 76 72 71 76 82 88 90 97 89 82 86 81 70 70 79 84 82 78 72 65 72 73 73 65 75
74 77 79 80 78 73 61 70 70 66 65 72 66 69 78 82 82 82 82 81 78 76 78 85 89 91 92 89 83 77 74 69 68 63 64 71 73 79 76 72 71 70 64
60 54 49 53 73 74 72 70 72 70 68 70 74 76 77 84 82 81 84 89 84 81 78 77 74 74 80 85 80 76 84 88 80 69 66 70 73 81 77 77 73 70 67
39 40 39 35 48 72 62 66 76 72 70 77 80 80 82 89 86 87 89 93 95 92 78 73 68 67 74 72 70 69 68 75 70 68 70 70 79 86 86 91 86 80 76
39 38 36 34 66 65 68 79 79 75 79 80 80 83 79 82 80 78 88 85 91 75 73 70 73 81 77 76 81 80 77 72 67 70 69 67 67 72 79 82 88 90 84
35 36 35 33 46 66 62 74 72 72 74 76 75 70 68 69 69 70 79 70 70 77 84 85 89 97 90 87 86 98 97 98 96 86 75 78 69 67 71 93 94 91 94
31 33 32 34 34 56 60 59 59 59 60 59 59 58 66 69 73 73 78 80 80 73 74 61 57 54 60 66 74 77 83 87 88 87 86 81 79 79 76 74 80 95 94
24 28 32 34 34 40 49 56 57 54 52 50 49 48 48 64 72 78 78 76 74 69 56 51 40 37 36 36 35 36 42 59 40 37 37 39 51 74 82 84 79 81 84
22 29 33 34 35 40 39 50 46 38 40 36 36 39 42 50 58 65 60 61 58 49 51 42 36 35 36 38 38 39 39 36 36 35 36 35 38 68 65 56 87 83 77
22 29 33 32 32 38 36 41 40 36 39 36 35 38 42 43 47 52 53 53 50 37 39 38 40 39 40 39 38 38 38 40 37 35 38 41 44 54 55 68 66 80 89
25 28 27 27 25 23 27 32 34 32 33 35 36 39 42 46 39 37 43 44 41 37 38 39 39 40 42 41 42 39 39 38 36 38 33 42 39 38 36 41 39 76 97
25 24 23 24 24 24 25 29 30 30 32 33 33 33 43 42 40 35 35 38 42 38 38 41 41 43 43 43 42 44 44 40 42 37 45 39 39 41 40 39 36 34 42
22 22 23 24 24 25 25 26 26 26 26 26 27 32 42 40 39 37 35 34 38 39 41 40 41 46 45 42 51 58 68 50 37 44 44 46 47 45 45 42 39 40 41
23 22 22 23 24 25 26 26 26 27 28 28 27 28 30 34 41 38 36 35 35 36 36 38 41 44 47 50 49 56 75 75 63 47 49 47 49 49 47 47 42 39 39
23 24 24 26 26 27 28 27 27 27 30 27 27 27 29 30 38 38 38 36 36 39 42 46 53 52 52 54 46 49 51 59 79 64 49 48 44 43 46 43 40 43 41
22 22 23 25 26 28 31 32 33 31 29 28 27 29 29 29 32 36 38 42 47 50 50 49 43 36 32 36 36 35 31 33 46 68 59 43 44 43 49 48 44 39 33
26 27 27 28 30 30 31 32 34 35 36 37 34 32 32 32 36 36 47 51 48 44 43 45 46 52 58 57 50 51 49 58 55 61 62 56 51 47 45 47 46 41 40

GFSSE_925_rhum_015.txt.gz
RH
64 68 82 77 79 79 76 69 73 74 71 66 65 62 64 68 68 70 73 72 69 60 56 58 62 66 63 53 44 40 40 42 47 51 56 49 58 66 62 65 80 84 87
59 69 77 78 80 77 74 71 72 73 74 71 68 62 63 58 64 68 72 72 67 61 59 60 69 82 79 59 50 50 48 46 44 44 48 60 58 62 68 72 80 82 83
57 58 61 71 72 75 76 76 75 74 78 79 75 70 68 66 65 64 64 64 58 54 57 58 61 67 66 67 58 57 58 59 56 51 45 54 59 56 58 74 80 73 74
58 46 46 57 63 66 70 79 72 70 71 73 80 79 76 74 74 75 75 71 68 63 55 53 56 69 71 69 61 56 56 54 61 58 54 54 70 68 60 58 84 79 78
61 49 39 36 44 53 61 68 71 73 74 75 77 81 84 83 81 82 81 79 74 73 75 73 71 66 66 72 67 60 54 66 68 80 72 66 69 78 70 63 62 62 79
56 50 43 38 33 32 35 36 35 35 41 58 75 80 83 84 84 82 82 77 71 73 80 86 81 78 64 62 62 52 53 50 74 71 75 88 76 76 81 78 58 61 74
54 51 48 44 41 41 40 39 36 37 42 44 47 50 64 78 80 79 78 74 66 75 82 88 85 78 70 65 65 59 58 55 71 80 70 82 79 79 78 73 65 59 64
49 53 55 55 55 48 44 45 49 51 55 60 59 53 50 56 64 66 73 76 78 75 70 67 59 57 75 74 68 65 68 69 75 80 74 73 82 76 75 80 76 59 64
63 62 66 66 63 59 53 46 52 54 57 62 59 63 63 60 56 56 60 64 69 71 77 80 78 71 72 80 84 85 86 82 76 71 74 74 86 80 76 79 76 66 64
68 67 70 70 68 64 54 57 58 59 60 63 68 70 72 71 74 75 77 80 82 85 87 91 93 97 93 87 85 85 84 83 80 80 74 72 76 75 69 64 80 75 69
78 76 74 76 74 71 60 66 65 68 66 68 68 78 82 86 84 81 82 84 86 86 88 91 93 95 94 92 86 79 82 86 88 81 72 68 70 68 70 79 87 77 75
81 81 80 78 79 77 71 69 71 70 74 75 72 77 86 91 86 83 78 82 81 81 80 80 77 76 78 80 81 74 73 80 87 79 73 76 76 80 82 88 83 83 79
72 66 60 55 62 73 73 69 74 76 77 78 80 78 82 88 88 84 85 84 79 84 81 66 66 58 63 69 68 67 68 68 69 70 68 70 70 71 88 94 88 87 83
54 45 46 49 67 69 67 68 74 77 77 78 76 79 81 85 86 86 85 87 80 80 62 60 67 69 71 69 72 75 76 82 86 82 77 72 76 84 70 72 98 98 92
43 42 39 42 51 53 61 74 81 78 78 81 81 78 76 68 67 70 80 86 76 67 75 79 77 77 74 71 71 69 76 87 85 87 86 83 74 77 86 86 84 93 96
37 37 37 38 34 45 58 66 70 74 75 80 78 72 68 66 70 72 75 80 78 81 77 65 48 41 38 48 43 46 49 75 54 41 38 41 49 58 64 69 89 95 96
34 34 35 35 34 39 51 56 58 57 56 57 56 56 55 52 67 74 77 81 82 77 69 55 42 33 32 32 32 33 36 37 35 35 35 36 30 30 41 62 55 68 96
34 32 35 36 34 37 37 37 43 48 45 45 41 38 39 40 47 65 72 76 72 66 57 47 36 36 36 37 37 37 37 37 38 36 37 40 40 47 43 42 52 59 68
27 32 35 34 33 34 38 39 40 40 36 36 37 37 37 40 42 44 51 59 58 54 44 39 37 38 37 37 39 38 36 35 36 36 38 34 42 40 38 42 38 35 37
26 32 30 31 29 33 37 34 34 34 35 33 33 34 38 44 46 43 39 46 53 48 37 38 39 39 39 41 41 41 37 36 34 38 33 44 35 32 41 42 40 37 35
28 30 28 27 26 30 30 30 31 29 30 30 29 28 31 34 44 48 41 36 44 43 37 36 39 40 41 44 48 42 42 40 35 33 36 30 41 43 45 47 41 43 40
25 26 25 24 25 24 25 25 26 26 26 28 28 28 31 29 29 41 44 38 34 39 40 38 41 43 44 47 47 61 70 55 45 42 31 45 39 45 50 45 44 45 40
24 23 23 23 24 25 26 27 27 28 28 28 28 28 27 27 28 35 39 40 37 35 40 39 41 44 45 49 54 54 74 75 74 41 37 36 42 41 34 43 38 29 39
22 23 24 24 26 27 29 30 30 30 33 29 29 29 29 29 29 36 38 42 41 37 40 41 44 49 52 58 57 59 44 52 69 65 39 34 31 37 36 34 42 32 36
24 24 25 27 31 34 37 38 39 40 39 39 39 39 36 34 34 33 34 40 48 43 45 50 58 55 42 39 42 47 51 50 50 77 53 40 43 43 44 46 47 47 46
29 32 34 33 35 36 38 40 40 41 40 44 43 46 46 47 46 42 40 56 55 56 61 52 54 59 68 73 75 78 66 60 56 60 77 57 59 56 52 51 49 49 47

GFSSE_925_rhum_021.txt.gz
RH
76 80 82 87 86 87 85 81 74 67 71 72 68 64 65 71 71 68 70 69 69 72 75 69 69 68 62 55 66 68 67 63 54 52 51 55 60 60 66 70 68 81 74
68 86 86 90 86 83 84 82 75 68 57 65 69 72 76 76 73 74 72 70 70 72 64 56 58 57 56 54 48 50 56 54 52 56 53 62 59 61 68 69 72 83 76
58 69 81 85 83 78 78 81 80 77 69 59 57 65 72 74 74 72 68 67 63 61 58 57 54 59 64 63 58 58 59 60 59 58 57 75 80 66 63 69 77 74 76
51 61 64 71 78 75 76 77 78 77 79 76 69 65 66 66 65 64 63 62 58 63 67 68 62 62 73 76 77 74 68 66 65 63 76 72 80 70 67 67 83 78 75
42 43 55 67 69 71 67 70 73 70 70 75 84 85 84 83 79 77 75 70 69 71 76 70 72 72 73 84 85 81 77 71 69 76 78 83 74 79 78 61 68 76 81
45 41 46 48 48 41 41 43 43 50 63 77 87 92 94 93 90 88 87 83 78 76 79 77 76 80 82 82 84 82 71 63 59 79 84 87 79 73 75 80 73 71 66
46 44 45 43 45 45 44 42 41 41 41 42 50 70 84 90 95 95 96 87 87 87 89 91 85 82 84 84 82 75 71 70 80 96 99 92 84 75 76 77 75 68 63
46 46 48 50 51 50 46 48 51 55 57 58 55 52 50 54 59 64 68 76 78 74 70 68 66 67 69 79 81 79 82 81 82 89 93 85 83 79 79 81 75 76 71
51 51 57 59 58 54 50 49 51 51 53 58 62 64 65 66 65 65 68 70 71 71 72 76 81 81 85 89 90 88 85 80 82 83 76 70 68 80 96 86 80 75 73
62 66 68 66 61 59 55 56 55 58 60 63 65 66 66 68 71 74 75 76 79 81 81 83 89 91 92 91 89 85 82 81 89 85 81 81 66 62 81 94 77 73 71
72 69 67 64 65 68 61 62 62 62 63 66 67 66 66 70 72 69 65 71 72 75 76 77 78 79 79 80 80 79 76 72 74 80 82 73 67 68 67 82 82 77 80
79 66 68 70 70 71 70 66 66 67 68 70 70 70 73 74 76 76 73 71 74 76 77 80 76 72 64 61 62 66 71 68 76 78 84 69 68 68 80 87 88 88 88
75 70 68 68 65 58 61 70 68 70 71 73 72 73 76 78 81 83 82 82 85 82 73 70 59 59 58 53 52 56 59 63 76 88 84 74 71 69 68 88 86 87 92
68 68 70 66 54 41 46 58 67 70 71 75 74 75 76 77 79 83 84 79 71 74 74 62 59 63 62 61 58 58 58 66 89 83 72 62 58 61 66 68 75 94 86
72 67 68 56 41 42 50 56 65 72 72 76 74 75 77 76 75 74 70 68 68 72 70 61 65 59 46 42 41 44 46 58 59 55 48 34 32 33 43 58 68 79 94
63 62 64 46 39 42 46 51 60 67 73 77 75 77 79 77 71 67 67 67 68 71 71 73 70 56 41 30 28 28 30 44 33 31 35 42 38 38 36 59 55 61 68
57 62 60 44 38 37 42 50 56 59 63 62 62 67 72 69 62 56 52 54 54 65 73 79 74 61 45 30 28 30 33 36 36 35 33 34 44 38 37 42 40 39 42
60 58 55 44 38 39 44 45 46 47 48 47 50 49 47 46 44 43 44 42 42 57 74 80 74 63 46 34 38 40 36 34 35 35 33 35 34 37 37 37 37 37 37
49 52 51 41 38 41 41 40 39 40 38 37 36 34 35 37 36 38 38 37 41 47 54 65 68 62 51 44 41 37 34 36 34 36 33 36 36 32 32 24 30 32 33
37 46 47 39 36 37 40 40 38 36 31 30 28 30 33 35 37 38 38 37 42 46 50 56 62 60 52 47 43 42 49 44 36 37 40 38 40 31 35 32 32 38 21
34 39 36 34 32 41 46 46 40 35 31 29 29 30 31 32 34 38 41 44 47 54 47 47 57 64 60 52 54 49 52 54 53 51 49 47 35 32 36 50 43 42 36
30 31 34 46 45 40 38 43 40 34 32 31 32 35 38 39 40 40 38 38 46 68 63 62 65 63 61 60 45 46 43 43 53 57 54 52 54 46 48 34 33 35 38
39 39 40 36 35 37 40 40 41 41 43 44 45 42 39 38 38 40 44 50 50 63 66 68 71 70 56 57 60 43 47 46 39 54 61 55 54 56 46 39 36 40 38
40 38 39 44 46 45 44 44 46 55 54 53 55 52 42 39 39 39 40 43 51 65 72 71 70 73 68 56 66 64 63 55 46 43 48 54 54 46 46 45 47 46 44
48 48 47 46 45 46 44 45 55 58 59 62 63 60 54 44 37 41 42 43 46 65 78 82 79 83 73 68 60 60 69 59 57 45 44 41 44 48 49 53 54 52 52
46 44 42 43 44 50 49 56 58 51 54 59 56 53 48 51 50 45 46 47 53 65 77 86 84 85 81 76 74 71 67 56 52 54 55 53 57 62 56 54 54 54 50

GFSSE_925_rhum_024.txt.gz
RH
64 86 85 86 87 88 79 68 57 65 73 71 64 62 64 64 65 65 62 63 69 72 69 65 65 62 58 53 63 65 63 59 53 56 53 52 67 62 64 66 72 68 81
69 78 75 81 78 81 78 74 64 60 73 73 71 70 74 74 70 68 66 66 70 69 61 62 63 66 67 60 53 53 53 52 50 50 50 53 51 67 67 66 65 78 80
61 72 81 82 83 84 84 79 75 64 61 69 74 78 78 75 72 70 70 72 68 61 58 59 62 67 71 74 68 66 62 60 55 52 46 53 55 62 71 69 72 73 80
60 67 78 77 78 84 88 86 84 82 76 69 66 70 73 73 72 74 74 67 60 62 68 71 71 68 80 84 78 74 71 68 66 61 65 57 56 66 71 70 79 75 77
58 66 87 80 81 76 75 74 74 75 79 81 81 78 77 77 77 76 72 73 70 71 84 83 91 80 80 84 83 78 74 72 66 60 60 62 60 68 73 67 67 70 73
51 58 59 62 52 46 45 39 41 50 67 83 88 88 89 88 87 84 82 77 73 77 80 80 86 88 87 83 84 82 78 66 54 59 61 66 74 78 72 78 68 71 69
48 53 59 42 42 41 42 44 46 47 47 47 53 67 76 83 86 83 82 78 77 74 74 77 86 82 86 85 80 75 69 65 71 65 67 71 74 77 69 69 72 69 68
46 56 60 52 49 46 45 45 46 50 53 54 52 51 50 53 57 62 67 73 75 71 68 66 63 65 69 75 78 78 77 73 72 70 69 70 87 75 76 73 74 74 72
47 52 57 62 59 51 50 52 55 56 56 58 61 62 61 60 61 64 67 71 74 76 76 78 80 82 84 85 85 83 79 74 73 66 66 63 72 68 75 78 79 78 78
57 55 60 63 64 68 71 57 58 59 60 62 64 67 68 71 72 74 76 78 79 82 88 93 94 92 91 89 85 82 78 74 70 68 62 72 65 73 93 80 80 72 72
56 65 65 61 70 70 64 70 62 59 62 66 72 66 77 74 76 79 74 72 75 74 74 74 73 71 71 70 70 69 66 57 65 62 62 74 69 71 93 82 84 83 76
55 60 63 71 73 75 63 68 72 72 68 73 74 80 71 82 80 74 79 71 73 75 70 63 64 67 62 55 55 59 53 62 57 58 58 71 69 70 87 83 86 90 88
49 52 62 74 80 76 60 59 56 60 65 71 82 81 79 81 79 79 76 76 77 77 69 67 66 57 62 61 57 62 58 61 51 52 63 66 66 69 73 85 90 83 90
42 48 62 73 77 73 56 52 54 57 61 64 70 87 80 71 72 75 70 69 73 67 72 67 62 73 73 69 64 62 63 58 50 50 53 56 52 54 65 80 88 91 92
38 44 60 72 71 56 64 59 64 67 63 67 72 75 80 69 68 70 67 67 64 62 62 64 63 65 63 62 57 55 50 55 58 42 40 41 33 34 43 61 74 84 89
43 47 60 68 61 57 57 64 61 65 61 66 62 64 83 78 68 64 59 56 54 55 56 61 61 60 52 51 48 46 40 44 44 40 34 49 30 28 31 37 47 58 66
40 48 60 64 59 59 57 58 56 52 62 55 53 65 70 74 64 65 54 52 48 52 65 69 67 64 58 48 43 41 42 49 42 41 40 38 49 35 34 34 32 31 35
46 47 54 57 55 54 53 54 51 49 52 48 49 51 59 62 65 62 54 51 50 53 56 57 57 54 52 47 39 36 36 38 43 44 41 39 38 37 41 35 34 34 33
42 46 52 56 55 50 53 54 57 58 53 45 49 46 50 58 61 63 54 52 56 55 54 57 54 56 50 44 39 35 36 37 37 39 38 42 42 40 37 46 29 30 31
38 46 49 52 54 56 55 55 49 48 44 45 40 40 45 45 52 56 53 54 58 56 52 52 55 53 52 46 38 32 34 38 39 38 38 39 42 45 43 40 45 41 26
40 45 50 48 53 52 49 45 39 37 35 35 35 40 51 50 53 55 52 52 53 56 58 57 54 57 58 52 51 42 39 40 46 42 40 39 38 43 42 46 43 35 38
42 45 44 44 43 40 36 40 43 44 39 44 46 47 46 50 50 50 52 53 53 54 55 60 63 61 57 53 51 45 40 35 38 45 44 40 42 40 38 48 40 42 38
43 41 39 42 45 49 46 42 42 40 39 38 41 41 45 50 49 49 50 53 56 57 54 55 58 59 60 57 52 53 44 42 34 34 47 46 42 46 42 42 42 39 41
48 47 46 46 45 49 53 46 50 45 43 48 49 48 50 46 47 48 52 54 57 56 55 56 55 59 60 58 56 53 56 51 46 47 43 47 47 48 48 44 39 42 44
50 51 50 46 48 51 53 56 53 51 48 49 51 50 47 42 43 43 51 59 61 60 57 64 67 68 66 63 61 58 58 58 55 60 50 45 50 47 46 47 45 46 48
47 50 49 47 46 52 56 59 60 58 54 50 46 43 38 39 38 41 49 64 68 71 71 73 77 77 76 75 76 71 72 70 66 63 59 51 52 48 43 46 50 53 52

GFSSE_925_rhum_027.txt.gz
RH
72 77 73 74 75 74 67 60 69 78 80 76 72 68 69 64 65 67 66 66 70 75 74 69 63 65 65 59 67 67 63 55 46 44 44 39 47 57 59 63 77 79 73
58 73 78 78 80 81 75 64 64 78 76 70 66 68 67 68 69 70 70 72 73 74 78 70 79 84 72 64 56 53 52 48 46 44 40 62 48 42 60 56 72 79 75
53 70 82 84 86 84 80 77 70 65 74 77 78 77 77 77 77 74 73 74 70 68 69 74 84 84 90 75 69 63 59 55 53 49 42 61 75 56 52 62 63 70 75
51 56 83 83 84 84 81 79 75 69 63 64 71 76 76 76 76 73 73 67 60 63 70 80 85 73 72 77 78 73 68 63 60 56 59 59 50 63 48 59 69 69 73
48 64 80 74 75 76 72 71 71 73 76 75 70 68 68 69 69 69 70 69 69 70 79 86 80 78 74 76 82 81 76 69 66 60 54 58 61 69 62 61 67 66 66
48 62 61 63 60 53 52 52 53 57 65 71 78 82 83 82 82 83 82 78 74 78 80 87 80 83 80 76 75 78 78 73 67 58 58 58 60 69 72 70 64 76 72
37 51 63 44 40 39 40 44 47 48 51 59 67 70 72 74 74 73 77 77 75 74 76 78 80 77 77 80 79 75 71 66 64 57 60 63 70 73 74 68 72 72 71
35 42 50 41 45 48 52 53 55 58 59 60 60 62 62 61 59 59 63 66 65 64 63 64 66 67 68 70 70 71 70 67 70 52 47 54 70 68 88 79 69 71 74
34 39 44 55 56 49 52 57 59 59 61 62 62 62 61 60 61 64 67 69 70 70 70 73 77 79 80 80 78 75 71 67 60 48 50 69 70 64 88 79 76 72 74
35 38 41 46 50 57 73 56 55 57 63 62 60 59 59 68 68 70 83 64 66 64 63 69 75 76 77 75 71 70 66 58 65 48 45 61 63 60 94 74 69 70 69
37 42 43 43 51 51 48 62 64 59 60 70 72 63 75 66 64 71 72 61 61 64 67 67 69 69 67 62 60 53 45 53 48 43 52 63 64 64 92 82 67 71 76
37 41 45 50 54 53 43 50 54 53 55 58 59 63 54 65 65 62 73 70 72 77 69 66 60 53 53 51 50 52 55 46 46 41 47 55 58 57 74 86 77 88 85
35 35 39 55 56 54 45 41 41 44 46 52 63 63 59 61 59 58 59 71 74 75 64 66 61 56 48 53 45 46 47 48 40 37 51 53 49 61 71 82 78 82 87
32 33 39 50 56 53 41 36 39 41 45 47 51 63 59 54 54 56 52 53 52 50 54 56 52 54 66 63 58 54 51 49 38 37 44 46 43 48 58 85 91 84 87
28 30 37 49 60 45 47 43 46 49 47 53 53 55 61 55 55 56 55 54 51 49 48 47 49 49 53 54 51 49 46 43 45 46 34 40 38 33 40 64 80 84 84
26 30 36 48 59 44 42 48 47 50 48 51 48 51 59 61 56 56 51 49 46 43 44 47 45 49 50 45 45 45 45 36 34 41 33 36 37 24 32 45 57 64 65
27 30 36 49 54 51 44 46 41 40 44 42 42 48 54 57 53 55 49 48 44 44 46 49 50 50 50 48 43 42 40 42 41 40 36 33 44 35 31 37 35 38 46
25 28 35 43 49 54 40 42 39 38 41 39 39 41 47 52 55 54 49 47 47 51 50 48 48 47 46 44 42 41 35 34 36 42 41 39 34 37 40 30 35 35 35
28 31 35 41 49 50 43 42 43 45 45 37 39 39 40 47 48 53 50 48 50 50 50 49 46 46 46 46 44 38 37 36 35 36 38 40 39 36 36 42 38 30 30
31 38 42 44 48 50 48 45 39 38 37 36 34 34 40 44 46 50 50 51 51 49 48 48 51 50 50 50 46 41 40 35 35 37 37 37 37 42 42 43 42 30 23
36 35 42 45 51 48 42 39 34 33 33 33 33 40 48 48 50 51 49 47 47 47 47 51 53 55 57 53 53 51 49 45 40 38 39 38 37 38 44 43 41 41 40
37 37 38 39 40 38 33 37 41 42 38 40 41 43 42 46 50 48 47 46 44 46 47 50 53 56 56 55 57 56 56 48 41 41 41 43 40 39 38 44 42 42 35
39 37 38 40 41 44 41 37 37 35 35 35 36 42 44 50 49 47 46 47 50 50 47 47 48 50 52 51 51 55 62 58 44 38 41 45 43 44 42 39 42 47 41
43 42 40 40 40 43 48 42 48 45 43 42 47 47 48 47 43 41 39 41 48 55 53 52 47 52 54 53 51 49 50 58 70 66 49 46 45 47 46 45 39 46 43
46 46 44 40 41 45 49 52 53 50 47 43 42 42 42 36 38 37 38 42 48 58 57 61 62 61 60 59 56 68 74 70 66 76 84 58 52 56 55 49 48 43 43
43 45 44 42 40 41 45 47 48 48 46 41 40 41 38 43 41 41 43 50 58 59 60 64 77 84 88 85 86 88 92 91 80 89 83 72 77 75 62 70 68 52 46

GFSSE_925_rhum_033.txt.gz
RH
81 74 72 71 63 60 66 68 74 76 74 68 70 75 73 72 70 70 70 70 72 74 72 68 68 63 60 60 56 52 49 45 44 45 50 74 63 66 74 76 74 67 81
76 80 75 70 69 63 68 73 70 71 70 70 69 69 72 72 73 73 72 72 72 77 85 71 68 76 70 68 68 63 58 53 48 48 49 54 78 57 54 74 70 65 75
82 75 74 75 74 70 64 70 76 75 74 75 75 77 76 75 73 71 69 66 63 60 61 67 65 65 69 69 71 71 69 66 60 55 57 64 76 69 56 45 56 68 77
73 75 77 76 74 73 70 65 64 72 77 79 80 79 78 76 74 72 69 66 65 67 72 74 73 74 70 68 70 69 71 69 68 64 62 69 75 75 67 50 48 63 72
72 72 76 73 74 72 72 73 74 73 70 70 70 70 71 73 78 81 80 79 76 74 75 74 72 68 70 70 68 67 67 66 64 63 64 70 67 69 73 69 65 54 67
68 66 67 60 55 52 52 52 54 58 64 72 74 79 80 81 80 76 71 67 64 62 64 62 57 56 52 50 52 56 57 58 59 58 69 74 66 66 69 69 68 78 76
62 53 42 34 33 36 38 38 40 43 45 45 50 53 54 51 50 52 55 55 56 56 57 57 58 60 62 62 61 59 58 54 52 55 69 73 65 63 64 62 64 70 73
42 38 35 37 38 39 39 40 43 44 46 48 48 49 49 48 49 52 56 58 60 61 60 58 58 60 62 62 62 60 53 49 49 55 75 75 69 66 57 57 62 68 65
32 32 36 37 36 34 34 38 45 47 47 46 45 46 50 56 59 55 51 41 40 37 37 37 39 39 39 41 39 36 27 24 35 60 66 67 65 57 56 54 53 66 70
40 42 40 53 55 52 37 34 36 37 42 40 44 64 68 69 70 58 55 57 54 53 56 40 46 43 34 35 44 46 43 30 42 55 66 62 57 56 55 55 54 51 62
46 51 52 55 55 58 50 51 45 60 59 64 60 65 70 75 66 56 58 62 63 62 61 60 58 56 51 54 56 57 49 49 53 51 45 48 55 56 51 47 51 59 55
46 52 52 58 57 58 51 50 52 58 61 62 61 65 60 63 65 59 64 66 62 62 65 66 58 58 56 53 52 51 54 53 54 50 49 45 50 47 43 38 28 49 62
38 48 49 52 46 53 46 49 54 55 58 59 61 62 62 57 62 63 64 62 56 59 57 54 54 53 55 55 54 54 52 50 47 47 49 48 52 49 46 42 28 41 64
38 46 50 42 50 48 44 47 57 58 61 64 62 59 60 56 58 56 57 55 53 50 48 48 53 52 54 57 55 56 57 55 48 46 47 45 49 47 42 36 26 41 62
42 46 46 42 38 36 45 43 44 49 47 54 58 59 56 55 57 57 56 53 51 48 46 46 46 46 44 46 47 49 50 50 46 44 43 41 45 46 38 33 26 47 88
41 46 47 46 48 44 46 44 44 47 49 49 54 53 53 50 58 54 55 52 50 48 48 47 47 50 52 53 52 53 51 48 46 44 41 37 41 44 37 34 28 33 82
33 39 45 48 55 44 43 45 43 51 46 44 45 45 45 48 55 54 54 54 54 52 52 50 48 52 53 52 51 49 49 48 48 45 42 36 33 40 39 36 35 25 43
29 36 44 55 56 51 45 45 41 44 41 41 40 41 41 48 50 53 54 52 49 46 46 48 50 52 53 52 52 52 51 51 48 46 44 40 36 36 38 38 39 36 26
37 41 49 56 60 62 65 47 43 42 40 38 42 43 50 50 47 46 46 45 48 51 53 54 54 58 58 56 58 61 58 55 55 54 51 43 40 40 40 38 39 40 35
45 47 56 63 64 59 54 49 48 47 46 43 45 41 42 43 46 49 49 49 50 50 49 51 51 50 52 54 55 57 56 60 61 59 56 57 53 41 42 41 39 40 39
45 44 45 41 45 42 39 40 38 38 37 37 42 42 42 45 50 50 51 50 48 48 47 46 53 56 52 50 59 66 62 62 61 59 57 54 52 55 47 42 41 39 39
41 42 42 41 41 40 40 42 44 44 42 42 49 49 49 49 47 46 44 42 45 49 52 59 58 56 59 69 72 75 77 65 60 61 58 60 59 64 61 54 48 44 41
41 40 41 42 41 38 43 44 42 41 46 49 46 44 43 44 44 44 44 44 45 48 53 54 58 70 80 80 80 87 95 92 82 65 63 60 63 69 69 77 70 62 53
45 42 41 41 41 42 43 44 46 51 52 49 46 44 45 47 50 49 47 47 47 54 55 65 81 79 77 84 80 76 76 90 87 82 68 66 67 77 74 76 92 92 87
47 45 43 43 44 43 44 46 47 49 48 47 47 50 54 55 56 53 51 49 52 70 77 75 74 77 78 79 87 88 84 77 83 98 88 76 82 80 77 81 71 76 95
46 45 45 44 44 41 43 46 49 50 53 53 54 58 60 59 56 54 56 63 73 73 70 70 77 79 83 84 83 86 100 94 88 92 91 89 93 84 81 66 75 80 89

GFSSE_925_rhum_039.txt.gz
RH
89 82 72 74 68 64 66 67 65 58 58 59 61 63 66 68 70 70 69 70 67 72 70 69 66 61 63 66 67 66 62 58 55 52 49 72 56 73 71 74 72 71 66
84 80 74 69 66 65 68 69 67 63 64 66 69 71 73 74 75 73 71 68 70 68 67 64 60 61 63 65 66 68 69 66 60 63 60 61 72 54 51 64 66 69 74
84 78 69 67 67 70 73 70 67 68 72 75 76 77 77 75 73 70 67 66 69 82 83 78 76 71 67 64 66 68 71 68 68 66 64 67 71 69 59 49 57 55 62
84 74 66 69 71 70 69 70 72 74 76 78 77 76 73 68 66 67 70 72 77 91 100 92 72 65 59 55 57 62 68 68 67 68 68 66 75 72 65 56 53 56 60
86 77 71 66 69 74 74 74 75 76 77 76 71 67 69 74 72 66 59 58 60 65 63 50 51 49 49 49 50 51 53 54 58 63 68 69 66 68 67 65 66 61 62
87 79 74 70 67 64 64 65 66 68 69 69 72 70 66 55 44 40 42 43 44 44 46 46 44 46 51 56 60 64 63 62 61 58 66 72 76 74 62 60 61 65 66
86 78 75 69 62 59 59 62 64 66 65 64 58 51 43 40 39 40 41 42 41 38 32 29 31 34 35 37 39 41 37 37 40 67 71 69 74 71 65 62 58 58 63
69 67 56 42 38 38 41 44 47 47 49 47 44 41 38 39 39 38 36 35 33 36 33 29 32 32 30 32 40 48 48 41 42 63 64 74 78 73 68 61 60 58 63
49 37 35 35 34 35 37 40 43 43 44 43 40 41 48 47 51 52 52 50 51 55 43 53 52 48 42 44 48 50 51 51 55 55 58 66 71 66 64 61 59 53 49
34 33 32 32 30 31 36 38 37 39 41 39 48 58 59 56 58 58 59 58 57 59 57 56 54 54 50 50 52 52 49 49 52 52 51 50 62 65 65 64 64 52 39
39 34 42 43 38 30 26 29 35 35 40 55 62 63 60 60 61 64 64 65 62 63 62 60 56 56 56 55 54 54 54 52 46 47 49 50 49 54 73 75 54 45 40
41 44 50 50 45 41 39 48 51 53 55 66 66 63 64 63 66 67 67 68 66 62 59 59 60 58 57 56 54 55 55 57 54 51 44 43 42 47 57 67 56 49 43
38 51 54 52 51 49 48 53 56 60 60 62 65 68 66 64 66 69 66 66 62 60 56 55 55 57 55 51 48 47 50 53 52 51 50 46 45 42 44 58 52 45 42
47 52 57 54 54 54 53 53 54 58 61 60 63 65 67 66 66 66 64 62 57 57 53 51 50 51 50 50 51 52 52 51 51 51 51 48 47 45 40 44 66 65 55
55 54 57 56 56 54 53 53 58 57 58 60 65 66 66 61 59 59 60 59 56 54 53 54 54 55 56 56 56 58 59 58 58 58 58 56 52 49 46 42 37 62 65
51 55 56 56 55 50 48 50 51 54 57 61 65 67 65 62 58 59 57 55 54 54 56 56 56 56 55 57 57 58 58 58 60 61 60 58 57 56 53 48 41 38 43
48 51 57 60 57 50 51 49 50 53 57 56 57 65 65 60 52 53 54 55 56 56 55 52 52 52 51 51 50 50 50 50 50 50 52 60 62 61 60 58 52 43 38
55 61 63 62 54 52 55 55 54 57 56 53 57 64 62 60 59 60 58 58 55 53 51 50 49 48 47 47 45 42 40 33 36 43 51 58 64 65 62 59 61 58 46
57 63 65 63 64 65 69 61 56 51 49 50 51 60 63 64 61 59 56 54 53 51 49 49 50 50 48 46 44 42 35 30 34 49 57 62 65 65 66 61 60 60 61
69 71 73 72 76 80 76 58 48 46 52 52 53 55 56 56 55 54 52 49 47 46 46 46 46 44 44 52 49 42 48 43 52 71 64 57 61 66 70 72 72 73 70
79 83 83 79 82 77 61 47 50 53 54 50 47 47 47 47 46 46 44 44 43 44 45 44 43 42 45 60 69 72 60 56 61 59 53 56 58 59 59 58 57 58 66
56 52 50 50 48 48 47 47 51 50 49 47 47 46 45 44 44 44 45 48 51 50 45 49 63 73 77 80 78 76 92 63 75 52 46 50 58 60 56 52 51 48 51
47 44 44 43 43 43 43 42 43 47 50 48 48 48 49 50 51 53 55 56 53 47 58 70 73 69 71 69 76 75 87 91 81 60 51 66 58 61 61 55 54 65 67
48 46 46 44 44 43 42 41 40 40 46 51 52 55 57 58 58 58 57 55 53 54 57 59 61 66 77 82 77 84 79 88 95 95 66 63 71 73 72 61 63 83 73
48 45 45 45 45 46 46 45 45 48 50 53 56 59 62 61 58 57 57 60 62 62 58 63 80 89 90 90 92 93 92 91 87 94 90 76 69 74 76 66 69 65 66
52 46 45 44 46 47 47 50 51 54 56 56 56 59 57 57 59 62 68 65 61 61 64 73 79 79 82 92 99 100 97 87 80 81 84 88 89 77 79 72 67 65 71